| time (UTC) | temp F | wind direction | speed knots | gust knots | rain 1hr in | rain 24hr in | rain mn in | humidity % | barometer mb |
| 20260506234034 | 43 | 0 | 1.7 | 1.7 | 0.00 | 0.41 | 0.00 | 84 | 1012.2 |
| 20260506233539 | 43 | 0 | 0.9 | 0.9 | 0.00 | 0.43 | 0.00 | 84 | 1012.1 |
| 20260506233030 | 43 | 0 | 0.9 | 1.7 | 0.00 | 0.45 | 0.00 | 84 | 1012.1 |
| 20260506232530 | 43 | 0 | 0.0 | 1.7 | 0.00 | 0.47 | 0.00 | 84 | 1012.1 |
| 20260506232030 | 43 | 0 | 0.0 | 0.9 | 0.00 | 0.48 | 0.00 | 85 | 1012.1 |
| 20260506231533 | 43 | 0 | 0.0 | 1.7 | 0.00 | 0.48 | 0.00 | 84 | 1012.1 |
| 20260506231036 | 43 | 0 | 0.9 | 1.7 | 0.00 | 0.50 | 0.00 | 84 | 1012.2 |
| 20260506230539 | 44 | 0 | 0.9 | 0.9 | 0.00 | 0.51 | 0.00 | 83 | 1012.1 |
| 20260506230034 | 44 | 0 | 0.9 | 0.9 | 0.00 | 0.51 | 0.00 | 83 | 1012.2 |
| 20260506225533 | 44 | 0 | 0.0 | 1.7 | 0.00 | 0.51 | 0.00 | 83 | 1012.2 |
| 20260506225039 | 44 | 0 | 0.9 | 0.9 | 0.00 | 0.52 | 0.00 | 84 | 1012.2 |
| 20260506224530 | 44 | 0 | 0.9 | 0.9 | 0.00 | 0.52 | 0.00 | 84 | 1012.3 |
| 20260506224031 | 44 | 0 | 0.0 | 0.9 | 0.00 | 0.53 | 0.00 | 83 | 1012.5 |
| 20260506223531 | 44 | 0 | 0.9 | 0.9 | 0.00 | 0.53 | 0.00 | 84 | 1012.3 |
| 20260506223030 | 44 | 0 | 0.0 | 0.9 | 0.00 | 0.53 | 0.00 | 84 | 1012.4 |
| 20260506222530 | 44 | 0 | 0.0 | 0.9 | 0.00 | 0.53 | 0.00 | 84 | 1012.3 |
| 20260506222030 | 44 | 0 | 0.0 | 0.9 | 0.00 | 0.53 | 0.00 | 84 | 1012.2 |
| 20260506221531 | 44 | 0 | 0.0 | 0.9 | 0.00 | 0.53 | 0.00 | 83 | 1012.4 |
| 20260506221033 | 44 | 0 | 0.0 | 0.9 | 0.00 | 0.53 | 0.00 | 83 | 1012.4 |
| 20260506220533 | 44 | 0 | 0.9 | 1.7 | 0.00 | 0.53 | 0.00 | 82 | 1012.3 |
| 20260506220030 | 44 | 0 | 0.0 | 0.9 | 0.00 | 0.53 | 0.00 | 81 | 1012.4 |
| 20260506215533 | 44 | 0 | 0.0 | 1.7 | 0.00 | 0.53 | 0.00 | 81 | 1012.3 |
| 20260506215030 | 44 | 0 | 0.0 | 0.9 | 0.00 | 0.53 | 0.00 | 81 | 1012.3 |
| 20260506214530 | 45 | 0 | 0.0 | 1.7 | 0.00 | 0.53 | 0.00 | 81 | 1012.1 |
| 20260506214036 | 44 | 0 | 0.9 | 2.6 | 0.00 | 0.53 | 0.00 | 81 | 1012.0 |
| 20260506213531 | 45 | 0 | 1.7 | 1.7 | 0.00 | 0.53 | 0.00 | 80 | 1012.0 |
| 20260506213030 | 45 | 0 | 0.9 | 0.9 | 0.00 | 0.53 | 0.00 | 80 | 1012.2 |
| 20260506212530 | 45 | 0 | 0.0 | 0.9 | 0.00 | 0.53 | 0.00 | 80 | 1012.2 |
| 20260506212030 | 45 | 0 | 0.0 | 1.7 | 0.00 | 0.53 | 0.00 | 80 | 1012.1 |
| 20260506211533 | 45 | 0 | 0.9 | 1.7 | 0.00 | 0.53 | 0.00 | 80 | 1012.2 |
| 20260506211034 | 45 | 0 | 0.9 | 2.6 | 0.00 | 0.53 | 0.00 | 80 | 1012.2 |
| 20260506210530 | 45 | 0 | 0.9 | 1.7 | 0.00 | 0.53 | 0.00 | 81 | 1012.3 |
| 20260506210039 | 44 | 0 | 0.0 | 0.9 | 0.00 | 0.53 | 0.00 | 82 | 1012.3 |
| 20260506205531 | 45 | 0 | 0.0 | 0.9 | 0.00 | 0.53 | 0.00 | 81 | 1012.4 |
| 20260506205034 | 45 | 0 | 0.0 | 0.9 | 0.00 | 0.53 | 0.00 | 81 | 1012.3 |
| 20260506204539 | 45 | 0 | 0.9 | 1.7 | 0.00 | 0.53 | 0.00 | 81 | 1012.2 |
| 20260506204042 | 44 | 0 | 0.9 | 1.7 | 0.00 | 0.53 | 0.00 | 81 | 1012.1 |
| 20260506203531 | 45 | 0 | 0.9 | 0.9 | 0.00 | 0.53 | 0.00 | 82 | 1012.1 |
| 20260506203034 | 45 | 0 | 0.9 | 0.9 | 0.00 | 0.53 | 0.00 | 82 | 1012.0 |
| 20260506202531 | 45 | 0 | 1.7 | 1.7 | 0.00 | 0.53 | 0.00 | 81 | 1011.9 |
| 20260506202030 | 45 | 0 | 0.9 | 1.7 | 0.00 | 0.53 | 0.00 | 80 | 1011.9 |
| 20260506201533 | 45 | 0 | 0.9 | 1.7 | 0.00 | 0.53 | 0.00 | 80 | 1011.8 |
| 20260506201033 | 45 | 0 | 0.9 | 1.7 | 0.00 | 0.53 | 0.00 | 79 | 1011.6 |
| 20260506200534 | 46 | 0 | 0.9 | 1.7 | 0.00 | 0.53 | 0.00 | 78 | 1011.5 |
| 20260506200030 | 46 | 0 | 0.9 | 1.7 | 0.00 | 0.53 | 0.00 | 78 | 1011.5 |
| 20260506195534 | 46 | 0 | 0.9 | 1.7 | 0.00 | 0.53 | 0.00 | 77 | 1011.4 |
| 20260506195033 | 46 | 0 | 0.9 | 2.6 | 0.00 | 0.53 | 0.00 | 77 | 1011.2 |
| 20260506194533 | 47 | 0 | 0.9 | 1.7 | 0.00 | 0.53 | 0.00 | 77 | 1011.2 |
| 20260506194036 | 47 | 0 | 0.9 | 0.9 | 0.00 | 0.53 | 0.00 | 78 | 1011.2 |
| 20260506193534 | 47 | 0 | 0.9 | 1.7 | 0.00 | 0.53 | 0.00 | 76 | 1010.9 |
| 20260506193034 | 48 | 0 | 0.0 | 0.9 | 0.00 | 0.53 | 0.00 | 76 | 1010.9 |
| 20260506192530 | 48 | 0 | 0.9 | 0.9 | 0.00 | 0.53 | 0.00 | 75 | 1010.8 |
| 20260506192030 | 48 | 0 | 0.9 | 0.9 | 0.00 | 0.53 | 0.00 | 75 | 1010.7 |
| 20260506191530 | 49 | 0 | 0.0 | 1.7 | 0.00 | 0.53 | 0.00 | 73 | 1010.7 |
| 20260506191031 | 49 | 0 | 0.9 | 1.7 | 0.00 | 0.53 | 0.00 | 74 | 1010.6 |
| 20260506190531 | 50 | 0 | 0.0 | 1.7 | 0.00 | 0.53 | 0.00 | 72 | 1010.5 |
| 20260506190033 | 50 | 0 | 0.9 | 1.7 | 0.00 | 0.53 | 0.00 | 71 | 1010.5 |
| 20260506185533 | 50 | 0 | 0.0 | 0.9 | 0.00 | 0.53 | 0.00 | 71 | 1010.4 |
| 20260506185030 | 51 | 0 | 0.9 | 2.6 | 0.00 | 0.53 | 0.00 | 70 | 1010.2 |
| 20260506184533 | 51 | 0 | 0.9 | 3.5 | 0.00 | 0.53 | 0.00 | 69 | 1010.0 |
| 20260506184033 | 51 | 0 | 1.7 | 2.6 | 0.00 | 0.53 | 0.00 | 66 | 1010.1 |
| 20260506183537 | 52 | 0 | 0.9 | 2.6 | 0.00 | 0.53 | 0.00 | 65 | 1010.0 |
| 20260506183030 | 52 | 0 | 2.6 | 4.3 | 0.00 | 0.53 | 0.00 | 62 | 1009.8 |
| 20260506182537 | 52 | 0 | 0.9 | 5.2 | 0.00 | 0.54 | 0.00 | 62 | 1009.7 |
| 20260506182033 | 52 | 0 | 1.7 | 3.5 | 0.00 | 0.54 | 0.00 | 61 | 1009.5 |
| 20260506181530 | 52 | 0 | 2.6 | 2.6 | 0.00 | 0.54 | 0.00 | 60 | 1009.4 |
| 20260506181031 | 52 | 0 | 0.9 | 4.3 | 0.00 | 0.54 | 0.00 | 62 | 1009.3 |
| 20260506180530 | 52 | 0 | 0.9 | 3.5 | 0.00 | 0.56 | 0.00 | 64 | 1009.3 |
| 20260506180030 | 52 | 0 | 0.9 | 1.7 | 0.00 | 0.57 | 0.00 | 66 | 1009.2 |
| 20260506175533 | 53 | 0 | 0.0 | 1.7 | 0.00 | 0.57 | 0.00 | 67 | 1009.2 |
| 20260506175030 | 53 | 0 | 1.7 | 3.5 | 0.00 | 0.57 | 0.00 | 67 | 1009.3 |
| 20260506174539 | 53 | 0 | 0.0 | 1.7 | 0.00 | 0.57 | 0.00 | 67 | 1009.1 |
| 20260506174030 | 53 | 0 | 0.9 | 1.7 | 0.00 | 0.57 | 0.00 | 67 | 1009.1 |
| 20260506173533 | 53 | 0 | 0.9 | 3.5 | 0.00 | 0.57 | 0.00 | 67 | 1009.1 |
| 20260506173033 | 54 | 0 | 1.7 | 1.7 | 0.00 | 0.58 | 0.00 | 65 | 1009.0 |
| 20260506172533 | 54 | 0 | 0.0 | 1.7 | 0.00 | 0.59 | 0.00 | 66 | 1008.9 |
| 20260506172039 | 54 | 0 | 0.9 | 1.7 | 0.00 | 0.59 | 0.00 | 65 | 1008.9 |
| 20260506171533 | 54 | 0 | 0.0 | 2.6 | 0.00 | 0.60 | 0.00 | 64 | 1008.9 |
| 20260506171034 | 54 | 0 | 0.9 | 2.6 | 0.00 | 0.60 | 0.00 | 64 | 1008.9 |
| 20260506170530 | 55 | 0 | 0.9 | 2.6 | 0.00 | 0.60 | 0.00 | 64 | 1008.7 |
| 20260506170030 | 55 | 0 | 0.9 | 2.6 | 0.00 | 0.60 | 0.00 | 62 | 1008.6 |
| 20260506165530 | 56 | 0 | 0.0 | 4.3 | 0.00 | 0.60 | 0.00 | 61 | 1008.7 |
| 20260506165033 | 56 | 0 | 0.9 | 2.6 | 0.00 | 0.60 | 0.00 | 60 | 1008.5 |
| 20260506164537 | 56 | 0 | 1.7 | 3.5 | 0.00 | 0.60 | 0.00 | 58 | 1008.5 |
| 20260506164030 | 57 | 0 | 2.6 | 4.3 | 0.00 | 0.60 | 0.00 | 57 | 1008.3 |
| 20260506163530 | 57 | 0 | 1.7 | 4.3 | 0.00 | 0.60 | 0.00 | 56 | 1008.4 |
| 20260506163030 | 57 | 0 | 2.6 | 4.3 | 0.00 | 0.60 | 0.00 | 57 | 1008.5 |
| 20260506162530 | 57 | 0 | 1.7 | 7.0 | 0.00 | 0.60 | 0.00 | 55 | 1008.4 |
| 20260506162030 | 58 | 0 | 0.9 | 3.5 | 0.00 | 0.61 | 0.00 | 56 | 1008.3 |
| 20260506161530 | 58 | 0 | 0.9 | 3.5 | 0.00 | 0.61 | 0.00 | 52 | 1008.4 |
| 20260506161030 | 59 | 0 | 2.6 | 3.5 | 0.00 | 0.62 | 0.00 | 53 | 1008.1 |
| 20260506160536 | 59 | 0 | 2.6 | 3.5 | 0.00 | 0.62 | 0.00 | 55 | 1008.1 |
| 20260506160040 | 59 | 0 | 1.7 | 2.6 | 0.00 | 0.63 | 0.00 | 51 | 1008.1 |
| 20260506155540 | 59 | 0 | 0.9 | 3.5 | 0.00 | 0.65 | 0.00 | 53 | 1007.9 |
| 20260506155033 | 59 | 0 | 1.7 | 3.5 | 0.00 | 0.65 | 0.00 | 49 | 1008.1 |
| 20260506154533 | 60 | 0 | 1.7 | 4.3 | 0.00 | 0.66 | 0.00 | 51 | 1007.9 |
| 20260506154036 | 60 | 0 | 2.6 | 5.2 | 0.00 | 0.66 | 0.00 | 51 | 1007.9 |
| 20260506153533 | 60 | 0 | 0.9 | 3.5 | 0.00 | 0.66 | 0.00 | 52 | 1007.9 |
| 20260506153033 | 60 | 0 | 0.9 | 2.6 | 0.00 | 0.66 | 0.00 | 49 | 1007.9 |
| 20260506152533 | 61 | 0 | 0.0 | 1.7 | 0.00 | 0.66 | 0.00 | 49 | 1007.7 |
| 20260506152031 | 62 | 0 | 1.7 | 2.6 | 0.00 | 0.66 | 0.00 | 47 | 1007.9 |
| 20260506151530 | 62 | 0 | 0.9 | 2.6 | 0.00 | 0.66 | 0.00 | 50 | 1007.6 |
| 20260506151036 | 62 | 0 | 1.7 | 6.1 | 0.00 | 0.66 | 0.00 | 45 | 1007.8 |
| 20260506150530 | 63 | 265 | 0.9 | 2.6 | 0.00 | 0.66 | 0.00 | 48 | 1007.7 |
| 20260506150033 | 63 | 46 | 0.9 | 3.5 | 0.00 | 0.66 | 0.00 | 45 | 1007.6 |
| 20260506145533 | 63 | 54 | 2.6 | 3.5 | 0.00 | 0.66 | 0.00 | 43 | 1007.7 |
| 20260506145039 | 64 | 308 | 2.6 | 3.5 | 0.00 | 0.66 | 0.00 | 42 | 1007.6 |
| 20260506144530 | 63 | 254 | 2.6 | 3.5 | 0.00 | 0.66 | 0.00 | 45 | 1007.7 |
| 20260506144036 | 63 | 246 | 0.9 | 3.5 | 0.00 | 0.66 | 0.00 | 42 | 1007.7 |
| 20260506143530 | 63 | 190 | 0.9 | 2.6 | 0.00 | 0.66 | 0.00 | 47 | 1007.6 |
| 20260506143030 | 64 | 295 | 0.9 | 5.2 | 0.00 | 0.66 | 0.00 | 42 | 1007.6 |
| 20260506142530 | 64 | 182 | 2.6 | 4.3 | 0.00 | 0.66 | 0.00 | 43 | 1007.7 |
| 20260506142030 | 64 | 301 | 1.7 | 3.5 | 0.00 | 0.66 | 0.00 | 43 | 1007.7 |
| 20260506141533 | 63 | 219 | 2.6 | 3.5 | 0.00 | 0.66 | 0.00 | 46 | 1007.7 |
| 20260506141030 | 63 | 279 | 0.9 | 7.0 | 0.00 | 0.66 | 0.00 | 42 | 1007.7 |
| 20260506140536 | 63 | 224 | 2.6 | 3.5 | 0.00 | 0.66 | 0.00 | 43 | 1007.7 |
| 20260506140036 | 62 | 0 | 1.7 | 3.5 | 0.00 | 0.66 | 0.00 | 44 | 1007.7 |
| 20260506135534 | 62 | 0 | 3.5 | 7.0 | 0.00 | 0.66 | 0.00 | 38 | 1007.9 |
| 20260506135034 | 61 | 0 | 1.7 | 3.5 | 0.00 | 0.67 | 0.00 | 39 | 1007.7 |
| 20260506134530 | 61 | 0 | 0.9 | 5.2 | 0.00 | 0.67 | 0.00 | 37 | 1007.9 |
| 20260506134030 | 62 | 0 | 2.6 | 7.0 | 0.00 | 0.68 | 0.00 | 42 | 1007.8 |
| 20260506133530 | 62 | 0 | 1.7 | 5.2 | 0.00 | 0.68 | 0.00 | 42 | 1007.8 |
| 20260506133036 | 62 | 317 | 2.6 | 2.6 | 0.00 | 0.69 | 0.00 | 44 | 1007.9 |
| 20260506132534 | 61 | 303 | 1.7 | 4.3 | 0.00 | 0.69 | 0.00 | 50 | 1007.7 |
| 20260506132036 | 61 | 66 | 0.9 | 6.1 | 0.00 | 0.69 | 0.00 | 43 | 1007.8 |
| 20260506131533 | 62 | 94 | 1.7 | 7.0 | 0.00 | 0.69 | 0.00 | 43 | 1008.0 |
| 20260506131030 | 62 | 281 | 2.6 | 4.3 | 0.00 | 0.69 | 0.00 | 44 | 1007.5 |
| 20260506130531 | 62 | 0 | 0.9 | 3.5 | 0.00 | 0.69 | 0.00 | 44 | 1007.8 |
| 20260506130036 | 62 | 0 | 0.9 | 3.5 | 0.00 | 0.70 | 0.00 | 42 | 1007.7 |
| 20260506125533 | 61 | 0 | 2.6 | 2.6 | 0.00 | 0.70 | 0.00 | 42 | 1007.8 |
| 20260506125033 | 61 | 0 | 0.9 | 3.5 | 0.00 | 0.70 | 0.00 | 44 | 1007.8 |
| 20260506124530 | 61 | 0 | 2.6 | 4.3 | 0.00 | 0.70 | 0.00 | 45 | 1007.6 |
| 20260506124033 | 60 | 0 | 0.9 | 7.0 | 0.00 | 0.70 | 0.00 | 46 | 1007.6 |
| 20260506123537 | 61 | 0 | 2.6 | 3.5 | 0.00 | 0.70 | 0.00 | 44 | 1007.7 |
| 20260506123030 | 60 | 0 | 1.7 | 5.2 | 0.00 | 0.70 | 0.00 | 42 | 1007.4 |
| 20260506122536 | 61 | 0 | 2.6 | 4.3 | 0.00 | 0.70 | 0.00 | 39 | 1007.4 |
| 20260506122030 | 61 | 310 | 1.7 | 4.3 | 0.00 | 0.71 | 0.00 | 44 | 1007.4 |
| 20260506121531 | 60 | 0 | 0.9 | 3.5 | 0.00 | 0.71 | 0.00 | 50 | 1007.2 |
| 20260506121033 | 60 | 0 | 1.7 | 7.8 | 0.00 | 0.71 | 0.00 | 42 | 1007.2 |
| 20260506120536 | 60 | 0 | 2.6 | 4.3 | 0.00 | 0.71 | 0.00 | 45 | 1007.3 |
| 20260506120033 | 60 | 0 | 1.7 | 2.6 | 0.00 | 0.71 | 0.00 | 47 | 1007.1 |
| 20260506115531 | 60 | 0 | 1.7 | 2.6 | 0.00 | 0.71 | 0.00 | 48 | 1007.1 |
| 20260506115030 | 60 | 0 | 0.9 | 5.2 | 0.00 | 0.71 | 0.00 | 46 | 1006.9 |
| 20260506114530 | 60 | 0 | 1.7 | 4.3 | 0.00 | 0.71 | 0.00 | 55 | 1007.1 |
| 20260506114030 | 60 | 0 | 0.9 | 4.3 | 0.00 | 0.71 | 0.00 | 53 | 1007.1 |
| 20260506113536 | 59 | 0 | 0.9 | 3.5 | 0.00 | 0.71 | 0.00 | 55 | 1007.1 |
| 20260506113033 | 59 | 0 | 3.5 | 5.2 | 0.00 | 0.71 | 0.00 | 52 | 1007.2 |
| 20260506112530 | 59 | 0 | 0.9 | 3.5 | 0.00 | 0.71 | 0.00 | 54 | 1006.9 |
| 20260506112033 | 59 | 0 | 0.9 | 5.2 | 0.00 | 0.72 | 0.00 | 57 | 1007.0 |
| 20260506111530 | 59 | 0 | 3.5 | 7.0 | 0.00 | 0.72 | 0.00 | 60 | 1007.0 |
| 20260506111036 | 59 | 0 | 1.7 | 2.6 | 0.00 | 0.72 | 0.00 | 60 | 1006.9 |
| 20260506110530 | 58 | 0 | 0.9 | 5.2 | 0.00 | 0.72 | 0.00 | 60 | 1006.9 |
| 20260506110036 | 58 | 0 | 0.9 | 4.3 | 0.00 | 0.72 | 0.00 | 59 | 1006.9 |
| 20260506105539 | 58 | 0 | 1.7 | 3.5 | 0.00 | 0.72 | 0.00 | 59 | 1007.0 |
| 20260506105030 | 57 | 0 | 0.9 | 2.6 | 0.00 | 0.72 | 0.00 | 60 | 1006.8 |
| 20260506104533 | 57 | 0 | 1.7 | 3.5 | 0.00 | 0.72 | 0.00 | 61 | 1006.9 |
| 20260506104033 | 57 | 0 | 1.7 | 3.5 | 0.00 | 0.72 | 0.00 | 61 | 1007.0 |
| 20260506103533 | 57 | 0 | 0.9 | 4.3 | 0.00 | 0.72 | 0.00 | 63 | 1006.8 |
| 20260506103031 | 57 | 0 | 1.7 | 4.3 | 0.00 | 0.72 | 0.00 | 61 | 1006.8 |
| 20260506102537 | 57 | 0 | 0.9 | 2.6 | 0.00 | 0.72 | 0.00 | 64 | 1006.9 |
| 20260506102036 | 56 | 0 | 0.9 | 3.5 | 0.00 | 0.72 | 0.00 | 68 | 1006.8 |
| 20260506101534 | 56 | 0 | 0.9 | 2.6 | 0.00 | 0.72 | 0.00 | 69 | 1006.8 |
| 20260506101036 | 56 | 0 | 1.7 | 7.0 | 0.00 | 0.72 | 0.00 | 69 | 1006.8 |
| 20260506100530 | 55 | 0 | 1.7 | 4.3 | 0.00 | 0.72 | 0.00 | 68 | 1006.8 |
| 20260506100033 | 55 | 0 | 2.6 | 3.5 | 0.00 | 0.72 | 0.00 | 67 | 1006.8 |
| 20260506095533 | 55 | 0 | 0.9 | 4.3 | 0.00 | 0.73 | 0.00 | 69 | 1006.8 |
| 20260506095030 | 55 | 0 | 0.9 | 2.6 | 0.00 | 0.73 | 0.00 | 68 | 1006.7 |
| 20260506094531 | 55 | 0 | 1.7 | 2.6 | 0.00 | 0.73 | 0.00 | 70 | 1006.7 |
| 20260506094030 | 54 | 0 | 0.9 | 2.6 | 0.00 | 0.73 | 0.00 | 69 | 1006.6 |
| 20260506093533 | 54 | 0 | 0.9 | 3.5 | 0.00 | 0.73 | 0.00 | 71 | 1006.7 |
| 20260506093033 | 53 | 0 | 1.7 | 1.7 | 0.00 | 0.73 | 0.00 | 72 | 1006.5 |
| 20260506092533 | 53 | 0 | 0.9 | 4.3 | 0.00 | 0.73 | 0.00 | 72 | 1006.7 |
| 20260506092030 | 53 | 0 | 0.9 | 3.5 | 0.00 | 0.73 | 0.00 | 74 | 1006.6 |
| 20260506091533 | 52 | 0 | 1.7 | 3.5 | 0.00 | 0.73 | 0.00 | 76 | 1006.5 |
| 20260506091030 | 52 | 0 | 1.7 | 2.6 | 0.00 | 0.73 | 0.00 | 75 | 1006.5 |
| 20260506090533 | 51 | 0 | 1.7 | 4.3 | 0.00 | 0.73 | 0.00 | 78 | 1006.6 |
| 20260506090031 | 51 | 0 | 3.5 | 4.3 | 0.00 | 0.74 | 0.00 | 78 | 1006.5 |
| 20260506085536 | 50 | 0 | 0.9 | 1.7 | 0.00 | 0.74 | 0.00 | 79 | 1006.6 |
| 20260506085030 | 50 | 0 | 0.9 | 3.5 | 0.00 | 0.74 | 0.00 | 81 | 1006.5 |
| 20260506084539 | 50 | 0 | 0.0 | 3.5 | 0.00 | 0.74 | 0.00 | 80 | 1006.3 |
| 20260506084030 | 50 | 0 | 0.9 | 3.5 | 0.00 | 0.74 | 0.00 | 82 | 1006.4 |
| 20260506083531 | 49 | 0 | 0.9 | 3.5 | 0.00 | 0.74 | 0.00 | 81 | 1006.4 |
| 20260506083036 | 49 | 0 | 0.9 | 2.6 | 0.00 | 0.74 | 0.00 | 82 | 1006.2 |
| 20260506082530 | 48 | 0 | 0.0 | 3.5 | 0.00 | 0.74 | 0.00 | 84 | 1006.1 |
| 20260506082033 | 47 | 0 | 0.9 | 2.6 | 0.00 | 0.74 | 0.00 | 87 | 1006.2 |
| 20260506081536 | 47 | 0 | 0.9 | 3.5 | 0.00 | 0.74 | 0.00 | 87 | 1006.1 |
| 20260506081030 | 47 | 0 | 0.9 | 4.3 | 0.00 | 0.74 | 0.00 | 88 | 1006.2 |
| 20260506080536 | 47 | 0 | 0.9 | 1.7 | 0.00 | 0.74 | 0.00 | 90 | 1006.3 |
| 20260506073030 | 44 | 0 | 1.7 | 2.6 | 0.00 | 0.74 | 0.00 | 96 | 1006.5 |
| 20260506072533 | 44 | 0 | 0.9 | 4.3 | 0.00 | 0.74 | 0.00 | 96 | 1006.5 |
| 20260506072030 | 44 | 0 | 2.6 | 4.3 | 0.00 | 0.74 | 0.00 | 96 | 1006.4 |
| 20260506071530 | 43 | 0 | 1.7 | 2.6 | 0.00 | 0.74 | 0.00 | 97 | 1006.3 |
| 20260506071033 | 43 | 0 | 0.9 | 1.7 | 0.00 | 0.74 | 0.00 | 97 | 1006.5 |
| 20260506070533 | 43 | 0 | 0.0 | 2.6 | 0.00 | 0.74 | 0.00 | 97 | 1006.5 |
| 20260506062033 | 41 | 0 | 0.0 | 0.9 | 0.00 | 0.78 | 0.00 | 96 | 1007.1 |
| 20260506061530 | 41 | 0 | 0.0 | 1.7 | 0.00 | 0.78 | 0.00 | 96 | 1007.0 |
| 20260506061033 | 41 | 0 | 0.0 | 0.9 | 0.00 | 0.78 | 0.00 | 96 | 1006.9 |
| 20260506060533 | 41 | 0 | 0.0 | 0.9 | 0.00 | 0.78 | 0.00 | 96 | 1007.0 |
| 20260506051031 | 41 | 0 | 0.9 | 1.7 | 0.00 | 0.78 | 0.00 | 96 | 1007.3 |
| 20260506050536 | 41 | 0 | 0.0 | 1.7 | 0.01 | 0.78 | 0.00 | 96 | 1007.3 |
| 20260506045033 | 41 | 0 | 0.0 | 0.9 | 0.03 | 0.79 | 0.00 | 96 | 1007.2 |
| 20260506044530 | 41 | 0 | 0.0 | 0.9 | 0.04 | 0.79 | 0.00 | 96 | 1007.2 |
| 20260506044033 | 41 | 0 | 0.9 | 0.9 | 0.07 | 0.79 | 0.00 | 96 | 1007.4 |
| 20260506043539 | 41 | 0 | 0.0 | 1.7 | 0.09 | 0.79 | 0.00 | 96 | 1007.3 |
| 20260506043031 | 41 | 0 | 0.9 | 1.7 | 0.12 | 0.79 | 0.00 | 96 | 1007.5 |
| 20260506042530 | 41 | 0 | 0.9 | 0.9 | 0.15 | 0.79 | 0.00 | 96 | 1007.5 |
| 20260506042039 | 41 | 0 | 0.0 | 0.9 | 0.18 | 0.79 | 0.00 | 96 | 1007.6 |
| 20260506041530 | 41 | 0 | 0.0 | 1.7 | 0.21 | 0.79 | 0.00 | 96 | 1007.6 |
| 20260506041030 | 42 | 0 | 1.7 | 3.5 | 0.21 | 0.78 | 0.00 | 96 | 1007.8 |
| 20260506040533 | 42 | 0 | 0.0 | 1.7 | 0.22 | 0.77 | 0.00 | 96 | 1007.8 |
| 20260506040036 | 42 | 0 | 0.0 | 0.9 | 0.23 | 0.77 | 0.00 | 96 | 1008.0 |
| 20260506035530 | 42 | 0 | 0.0 | 1.7 | 0.24 | 0.77 | 0.00 | 96 | 1007.9 |
| 20260506035038 | 42 | 0 | 0.9 | 1.7 | 0.23 | 0.76 | 0.00 | 96 | 1008.0 |
| 20260506034530 | 42 | 0 | 1.7 | 1.7 | 0.22 | 0.74 | 0.00 | 96 | 1008.0 |
| 20260506034033 | 42 | 0 | 0.0 | 0.9 | 0.19 | 0.72 | 0.00 | 96 | 1008.4 |
| 20260506033533 | 42 | 0 | 0.0 | 0.9 | 0.17 | 0.70 | 0.00 | 96 | 1008.2 |
| 20260506033030 | 42 | 0 | 0.0 | 0.9 | 0.14 | 0.66 | 0.00 | 96 | 1008.2 |
| 20260506032530 | 42 | 0 | 0.0 | 0.9 | 0.11 | 0.63 | 0.00 | 96 | 1008.3 |
| 20260506032033 | 42 | 0 | 0.0 | 0.9 | 0.11 | 0.62 | 0.00 | 96 | 1008.4 |
| 20260506031530 | 42 | 0 | 0.0 | 0.9 | 0.07 | 0.59 | 0.00 | 96 | 1008.5 |
| 20260506031036 | 42 | 0 | 0.0 | 1.7 | 0.07 | 0.58 | 0.00 | 96 | 1008.6 |
| 20260506030530 | 42 | 0 | 1.7 | 1.7 | 0.06 | 0.57 | 0.00 | 96 | 1008.7 |
| 20260506030036 | 42 | 0 | 0.0 | 0.9 | 0.04 | 0.56 | 0.00 | 96 | 1008.5 |
| 20260506025530 | 42 | 0 | 0.9 | 0.9 | 0.03 | 0.58 | 0.00 | 96 | 1008.5 |
| 20260506025030 | 42 | 0 | 0.0 | 0.9 | 0.04 | 0.61 | 0.00 | 96 | 1008.5 |
| 20260506024536 | 42 | 0 | 0.9 | 0.9 | 0.06 | 0.65 | 0.00 | 96 | 1008.6 |
| 20260506024030 | 42 | 0 | 0.9 | 1.7 | 0.06 | 0.68 | 0.00 | 96 | 1008.5 |
| 20260506023539 | 42 | 0 | 0.9 | 1.7 | 0.07 | 0.73 | 0.00 | 96 | 1008.6 |
| 20260506023033 | 42 | 0 | 0.0 | 0.0 | 0.06 | 0.75 | 0.00 | 96 | 1008.7 |
| 20260506022530 | 42 | 0 | 0.0 | 0.9 | 0.06 | 0.78 | 0.00 | 96 | 1008.8 |
| 20260506022036 | 42 | 0 | 0.0 | 1.7 | 0.04 | 0.79 | 0.00 | 96 | 1009.0 |
| 20260506021531 | 42 | 0 | 0.0 | 0.9 | 0.04 | 0.81 | 0.00 | 96 | 1009.2 |
| 20260506021036 | 42 | 0 | 0.0 | 0.9 | 0.03 | 0.82 | 0.00 | 96 | 1008.9 |
| 20260506020533 | 42 | 0 | 0.0 | 0.9 | 0.03 | 0.85 | 0.00 | 96 | 1009.0 |
| 20260506020036 | 42 | 0 | 0.0 | 0.9 | 0.03 | 0.87 | 0.00 | 96 | 1009.2 |
| 20260506015539 | 42 | 0 | 0.0 | 2.6 | 0.03 | 0.88 | 0.00 | 96 | 1009.2 |
| 20260506015030 | 42 | 0 | 1.7 | 2.6 | 0.02 | 0.89 | 0.00 | 96 | 1009.4 |
| 20260506014530 | 42 | 0 | 0.9 | 1.7 | 0.00 | 0.88 | 0.00 | 96 | 1009.4 |
| 20260506014033 | 42 | 0 | 0.0 | 1.7 | 0.01 | 0.91 | 0.00 | 96 | 1009.3 |
| 20260506013530 | 42 | 0 | 0.9 | 1.7 | 0.00 | 0.92 | 0.00 | 96 | 1009.3 |
| 20260506013033 | 42 | 0 | 0.0 | 0.9 | 0.00 | 0.95 | 0.00 | 96 | 1009.3 |
| 20260506012533 | 42 | 0 | 0.0 | 0.0 | 0.00 | 0.98 | 0.00 | 96 | 1009.5 |
| 20260506012030 | 42 | 0 | 0.0 | 0.9 | 0.00 | 0.99 | 0.00 | 96 | 1009.6 |
| 20260506011536 | 42 | 0 | 0.0 | 1.7 | 0.01 | 1.01 | 0.00 | 95 | 1009.6 |
| 20260506011030 | 42 | 0 | 0.9 | 1.7 | 0.02 | 1.03 | 0.00 | 95 | 1009.7 |
| 20260506010536 | 42 | 0 | 1.7 | 2.6 | 0.03 | 1.06 | 0.00 | 96 | 1009.8 |
| 20260506010039 | 42 | 0 | 0.9 | 0.9 | 0.03 | 1.07 | 0.00 | 96 | 1010.0 |
| 20260506005532 | 42 | 0 | 0.0 | 0.9 | 0.04 | 1.09 | 0.00 | 96 | 1010.0 |
| 20260506005033 | 43 | 0 | 0.0 | 0.9 | 0.05 | 1.10 | 0.00 | 96 | 1010.0 |
| 20260506004536 | 43 | 0 | 0.0 | 0.9 | 0.07 | 1.11 | 0.00 | 96 | 1010.2 |
| 20260506004033 | 43 | 0 | 0.0 | 0.9 | 0.07 | 1.11 | 0.00 | 96 | 1010.3 |
| 20260506003529 | 42 | 0 | 0.0 | 0.0 | 0.08 | 1.12 | 0.00 | 96 | 1010.6 |
| 20260506003033 | 43 | 0 | 0.0 | 0.0 | 0.11 | 1.12 | 0.00 | 96 | 1010.7 |
| 20260506002530 | 42 | 0 | 0.0 | 0.9 | 0.12 | 1.12 | 0.00 | 96 | 1010.7 |
| 20260506002033 | 43 | 0 | 0.9 | 0.9 | 0.13 | 1.13 | 0.00 | 96 | 1010.9 |
| 20260506001530 | 43 | 0 | 0.0 | 0.9 | 0.13 | 1.12 | 0.00 | 96 | 1010.8 |
| 20260506001030 | 43 | 0 | 0.0 | 1.7 | 0.14 | 1.11 | 0.00 | 96 | 1011.0 |
| 20260506000536 | 43 | 0 | 0.0 | 1.7 | 0.14 | 1.11 | 0.00 | 96 | 1011.0 |
| 20260506000039 | 43 | 0 | 0.9 | 1.7 | 0.13 | 1.10 | 0.00 | 96 | 1011.0 |
| 20260505235530 | 43 | 0 | 0.0 | 0.9 | 0.13 | 1.09 | 0.00 | 96 | 1011.0 |
| 20260505235030 | 43 | 0 | 0.0 | 0.9 | 0.13 | 1.08 | 0.00 | 96 | 1011.2 |
| 20260505234530 | 43 | 0 | 0.0 | 0.9 | 0.11 | 1.07 | 0.00 | 96 | 1011.3 |